Regional Weather Roundup
Issued by NWS

Home | Current Version | Previous Version | Graphics & Text | Print | Product List | Glossary On
Versions: 1 2 3 4 5 6 7 8 9 10 11 12 13 14 15 16 17 18 19 20 21 22 23 24 25 26 27 28 29 30 31 32 33 34 35 36 37 38 39 40 41 42 43 44 45 46 47 48 49 50
000
ASUS43 KMKX 220900
RWRWI

WISCONSIN REGIONAL WEATHER ROUNDUP
NATIONAL WEATHER SERVICE MILWAUKEE/SULLIVAN WI
400 AM CDT FRI SEP 22 2017

NOTE: "FAIR" INDICATES FEW OR NO CLOUDS BELOW 12,000 FEET WITH NO
SIGNIFICANT WEATHER AND/OR OBSTRUCTIONS TO VISIBILITY.

WIZ001-002-006>008-014>016-023>028-221000-
NORTHWEST WISCONSIN

CITY           SKY/WX    TMP DP  RH WIND       PRES   REMARKS
SUPERIOR ARPT  CLOUDY    60  59  99 NE5       29.87R
ASHLAND        CLOUDY    71  65  81 CALM      29.86F
HAYWARD        CLOUDY    71  65  81 S8        29.89F
SIREN          CLOUDY    74  66  74 S12G18    29.85S
CUMBERLAND     CLEAR     68  63  83 SE7       29.89S
RICE LAKE      CLEAR     69  65  88 SE7       29.91S
CHETEK         CLEAR     68  65  92 SE8       29.90F
LADYSMITH      CLEAR     70  66  85 SE5       29.94F
EAU CLAIRE     NOT AVBL
MENOMONIE      CLEAR     68  66  94 CALM      29.89F
NEW RICHMOND   MOCLDY    74  66  77 S12       29.87S
OSCEOLA        PTCLDY    74  67  77 SE7       29.87S
$$

WIZ003>005-009-010-017-018-221000-
NORTH CENTRAL WISCONSIN

CITY           SKY/WX    TMP DP  RH WIND       PRES   REMARKS
MANITOWISH WTR CLEAR     66  66 100 S7        29.96S
ARBOR VITAE    CLEAR     69  67  91 SE3       29.97R
WOODRUFF       CLEAR     69  67  91 SE3       29.97R
RHINELANDER    MOCLDY    69  67  93 S6        30.00R
EAGLE RIVER    MOCLDY    66  66  99 S3        29.99S
LAND O LAKES   MOCLDY    68  65  91 S6        30.00S
PHILLIPS       CLEAR     68  66  95 S7        29.94F
TOMAHAWK       PTCLDY    65  63  93 CALM      29.99R
MEDFORD        CLOUDY    66  64  91 S8        29.98R
MERRILL        CLOUDY    67  67  98 S3        29.99S
$$

WIZ029-030-035-036-043>047-221000-
CENTRAL WISCONSIN

CITY           SKY/WX    TMP DP  RH WIND       PRES   REMARKS
WAUSAU         PTCLDY    66  65  96 SE5       29.98R
MOSINEE        CLEAR     64  64 100 SE6       30.00S
MARSHFIELD     CLOUDY    68  64  87 S7        29.98R
STEVENS POINT  CLEAR     62  62 100 CALM      30.00S
WAUPACA        CLEAR     65  65  97 CALM      29.99S FOG
WAUTOMA        PTCLDY    63  63 100 CALM      30.00S
WISC RAPIDS    CLEAR     68  66  93 SE3       29.99S
CAMP DOUGLAS   NOT AVBL
$$

WIZ011>013-019>022-031-037>040-048>050-221000-
NORTHEAST WISCONSIN

CITY           SKY/WX    TMP DP  RH WIND       PRES   REMARKS
ANTIGO         CLEAR     65  65 100 S6        30.02R FOG
SHAWANO        FOG       65  64  94 CALM      29.99S VSB 1/2
OCONTO         CLEAR     61  60  99 CALM      29.99S
STURGEON BAY   CLEAR     70  68  93 S9        30.00F FOG
GREEN BAY      CLEAR     69  68  96 S6        30.00R
MANITOWOC      CLEAR     67  66  97 CALM      30.01S FOG
APPLETON       CLEAR     68  68 100 S3        30.00R FOG
CLINTONVILLE   MOCLDY    63  63 100 CALM      29.99S FOG
OSHKOSH        CLEAR     68  66  93 S6        30.00R FOG
$$

WIZ032>034-041-042-053>061-221000-
SOUTHWEST WISCONSIN

CITY           SKY/WX    TMP DP  RH WIND       PRES   REMARKS
LA CROSSE      NOT AVBL
SPARTA         CLEAR     74  67  80 CALM      29.95S
VIROQUA        PTCLDY    71  69  95 CALM      29.97S
BOSCOBEL       CLEAR     66  65  96 CALM      29.97R
PRAIRIE DU CHI PTCLDY    77  66  68 SE6       29.95S
PLATTEVILLE    CLEAR     74  71  91 S9        30.00S
$$

WIZ056-057-062-063-064-067-068-221000-
SOUTH CENTRAL WISCONSIN

CITY           SKY/WX    TMP DP  RH WIND       PRES   REMARKS
REEDSBURG      CLEAR     73  68  82 S10       29.97S
BARABOO/DELLS  CLEAR     70  65  82 S8        29.98F
LONE ROCK      NOT AVBL
MINERAL POINT  CLEAR     72  70  94 SE8       30.01R
MADISON        CLEAR     70  67  90 S7        30.00R
MIDDLETON      CLEAR     65  65 100 CALM      30.01S
WATERTOWN      CLEAR     69  69 100 SE3       30.01S
MONROE         CLEAR     70  66  88 S9        30.01S
JANESVILLE     CLEAR     68  68 100 S5        30.01S
$$

WIZ051-052-058>065-066-070>072-221000-
SOUTHEAST WISCONSIN

CITY           SKY/WX    TMP DP  RH WIND       PRES   REMARKS
MILWAUKEE      PTCLDY    71  69  93 CALM      30.03R FOG
WAUKESHA       CLEAR     66  64  94 CALM      30.04S FOG
MILWAUKEE/TIMM CLEAR     64  63  94 CALM      30.03S FOG
RACINE         CLEAR     71  70  96 CALM      30.05R FOG
BURLINGTON       N/A     62  62 100 CALM      30.03S FOG
KENOSHA        CLOUDY    70  68  93 SE3       30.04R FOG
FOND DU LAC    CLEAR     70  66  87 S7        30.01R
SHEBOYGAN      FOG       64  64 100 S3        30.02R VSB 1/4
WEST BEND        N/A     63  63 100 CALM      30.03S FOG
JUNEAU         CLEAR     69  67  92 SE5       30.03R
$$

LSZ147-162-221000-
LAKE SUPERIOR

STATION/POSITION TIME  TEMP    WIND        PRES    WAVE
                       AIR SEA DIR/SP/G            HT/PER
                 (UTC) (F)     (DEG/KT/KT) (MB)    (FT/S)
W MID LAKE BUOY  0750   59 55  100/  6/  6 1011.7R   1/ 4
DEVILS ISLAND    0800   61      40/  5/  5 1011.2F
SAXON HARBOR     0840   75     190/  9/ 16 1010.5S
$$

LMZ867-665-643>646-221000-
LAKE MICHIGAN

STATION/POSITION TIME  TEMP    WIND        PRES    WAVE
                       AIR SEA DIR/SP/G            HT/PER
                 (UTC) (F)     (DEG/KT/KT) (MB)    (FT/S)
S GREEN BAY BUOY 0830   69 67  200/  6/  6 1015.3F
N MID LAKE BUOY  0750   68 65  170/  6/  8 1016.4F   0
NORTHPORT PIER   0840   67     150/  6/  8 1015.6S
KEWAUNEE LAKESHO 0830   62     270/  1/  2 1015.1F
SHEBOYGAN LAKESH 0800   69     200/  4/  4 1015.9S
PORT WASHINGTON  0840   70     210/  1/  2 1017.3R
ATWATER BUOY     0709   69 66  200/  2/  4 1016.7R
MILWAUKEE LAKESH 0840   71     190/  3/  3   N/A
S MID LAKE BUOY  0750   72 69  150/ 10/ 10 1016.7S   1
KENOSHA   LAKESH 0800   73     190/  5/  6 1016.6
$$

TC  - TEMPERATURE IN CELSIUS
VSB - VISIBILITY IN STATUTE MILES
WCI - WIND CHILL INDEX
HX  - HEAT INDEX





USA.gov is the U.S. government's official web portal to all federal, state and local government web resources and services.